Location: Banersville
(6.3667°N, 10.7333°W)
Time: 06:54:08
(UTC+00:00)

Daily predictions for brighter satellites

Satellite Brightness Start Highest point End
(mag) Time Altitude Azimuth Time Altitude Azimuth Time Altitude Azimuth
SeaSat 1 3.6 18:36:09 10° ESE 18:39:47 21° ENE 18:43:24 10° NNE
Cosmos 1680 Rocket 3.5 18:39:24 10° S 18:44:31 62° ESE 18:49:37 10° NNE
Cosmos 1500 Rocket 3.5 18:41:37 10° N 18:45:57 87° E 18:50:15 10° S
APEX 4.1 18:41:00 10° S 18:46:17 47° ESE 18:50:28 10° NE
Cosmos 1328 Rocket 4.2 18:44:23 10° SSE 18:48:26 34° E 18:52:27 10° NNE
SL-8 R/B 3.7 18:46:23 10° SSW 18:51:10 73° SE 18:55:58 10° NE
Centaur D-1AR AC-48 4.3 18:49:18 10° WSW 18:51:43 15° SSW 18:54:04 10° SSE
NOAA 12 4.1 18:47:54 10° SSE 18:53:09 66° ENE 18:58:25 10° N
COSMO-SKYMED 1 4.0 18:51:40 10° N 18:55:42 40° WNW 18:59:47 10° SSW
H-2A R/B 1.7 18:50:31 10° WSW 18:57:01 53° NW 18:59:06 11° NE
Centaur AC-64 1.8 18:58:07 10° WSW 19:00:15 68° NNW 19:03:53 13° ENE
EO 1 Delta rocket 4.3 18:55:32 10° S 19:00:16 75° W 19:05:53 10° NNW
Cosmos 1151 Rocket 3.3 18:56:25 10° SSE 19:00:32 45° E 19:04:39 10° NNE
Aurora 2 Rocket 2.8 18:56:53 10° WSW 19:01:04 81° NNW 19:06:14 14° ENE
Okean-O 2.7 18:58:46 10° S 19:03:11 82° WSW 19:07:36 10° NNW
YAOGAN 1 3.5 19:01:45 10° SE 19:05:21 26° ENE 19:08:57 10° NNE
FengYun 1-2 T 4.4 19:01:03 10° SSE 19:06:26 49° ENE 19:11:45 10° N
SL-16 R/B 3.8 19:03:51 10° SE 19:06:36 14° ESE 19:07:36 13° E
Sich 1 3.5 19:06:15 10° NNE 19:10:20 39° E 19:14:27 10° SSE
Cosmos 2346 Rocket 4.5 19:05:04 10° S 19:11:15 64° E 19:17:25 10° NNE
Cosmos 158 Rocket 4.1 19:08:24 10° S 19:13:43 62° ESE 19:19:00 10° NNE
CSL-04 Rocket 4.1 19:09:17 10° SE 19:14:18 37° ENE 19:19:13 10° N
Hubble Space Telescope 0.7 19:11:08 10° WSW 19:15:15 83° SSE 19:17:45 23° ENE
ATLAS 5 CENTAUR R/B 3.2 19:00:14 10° SSW 19:15:20 82° ESE 19:19:00 13° NNE
Cosmos 2219 3.8 19:11:24 10° NNE 19:16:19 32° ENE 19:21:15 10° SE
Cosmos 1980 Rocket 2.2 19:11:37 10° SSW 19:17:14 86° WNW 19:22:53 10° NNE
Tsikada Rocket 4.0 19:12:27 10° S 19:18:37 62° E 19:24:50 10° NNE
Cosmos 2322 Rocket 3.7 19:15:49 10° SE 19:18:55 15° ESE 19:18:55 15° ESE
GPS 2-14 Rocket1 2.5 19:16:06 10° WNW 19:19:56 83° NNE 19:22:17 23° ESE
Ariane H10-3 2.6 19:17:41 10° WSW 19:20:18 71° S 19:24:46 20° E
GPS 2-17 Rocket1 4.3 19:19:20 10° NW 19:23:02 25° NNE 19:24:18 22° NE
YAOGAN 6 2.6 19:23:33 10° S 19:27:07 77° WSW 19:30:38 10° NNW
Ariane H10+ 4.3 19:21:50 10° W 19:27:55 75° S 19:37:27 19° E
ARIANE 5 R/B 1.3 19:27:24 10° WSW 19:29:33 29° S 19:29:45 29° SSE
Cosmos 1816 Rocket 4.5 19:24:28 10° S 19:30:44 88° E 19:37:03 10° N
ARIANE 5 R/B 3.3 19:11:01 10° W 19:34:01 71° S 19:36:22 28° ESE
Cosmos 2228 Rocket 3.3 19:30:46 10° SSE 19:34:59 47° E 19:36:17 35° NE
Cosmos 1633 2.4 19:32:09 10° N 19:35:44 67° E 19:39:19 10° S
BREEZE-M DEB (TANK) 3.7 19:35:18 10° SW 19:38:38 88° ESE 19:46:57 17° NE
Cosmos 2227 Rocket 3.9 19:35:20 10° NNE 19:47:34 - SE 19:36:38 16° NNE
Cosmos 2297 Rocket 3.1 19:35:48 10° N 19:46:26 - SE 19:38:59 27° NE
ADEOS Rocket 3.0 19:38:00 26° NE 19:40:52 47° ESE 19:46:08 10° S
Palapa 6 Rocket 3.5 19:37:18 10° SW 19:41:19 47° SSE 19:42:28 38° ESE
Cosmos 1862 3.1 19:41:46 31° NNE 19:43:32 66° E 19:47:30 10° SSE
Meteor 2-11 Rocket 4.4 19:42:35 10° N 19:48:36 59° E 19:54:37 10° SSE
Skynet4D Del rocket 3.6 19:46:05 10° NW 19:51:27 51° NNE 19:52:00 48° NE
CZ-4 R/B 3.3 19:55:36 10° SSW 19:59:23 32° W 20:03:10 10° NW
Cosmos 1400 Rocket 4.3 20:04:17 10° S 20:06:18 29° S 20:06:18 29° S
CZ-2C R/B 4.2 20:11:50 51° NNW 20:12:46 62° WNW 20:17:27 10° SSW
Cosmos 1939 Rocket 4.2 20:14:56 10° S 20:17:36 35° SSW 20:17:36 35° SSW
ARIANE 44L R/B 4.4 20:18:02 10° W 20:19:36 21° W 20:19:36 21° W
SL-16 R/B 3.4 20:45:05 10° SW 20:49:32 38° W 20:49:32 38° W
CZ-3A R/B 4.1 19:44:17 10° WNW 20:53:33 73° SSW 20:56:56 52° SE
Cosmos 2360 Rocket 4.5 20:49:52 10° S 20:50:46 15° S 20:50:46 15° S
ATLAS 2AS CENTAUR R/B 4.0 20:52:01 10° SSW 20:55:48 34° S 20:55:48 34° S
Cosmos 2322 Rocket 3.9 20:57:35 10° SW 21:00:47 28° WSW 21:00:47 28° WSW
COSMOS 2455 4.3 20:57:31 10° SW 21:00:52 32° SW 21:00:52 32° SW
ATLAS 5 CENTAUR R/B 4.4 21:38:17 10° WNW 22:29:44 20° E 22:56:28 10° E
